Stündliche Wetter Abadin

Heute, 24 Juni, Donnerstag

Zeit Temperatur Niederschläge Wind Luftdruck Luftfeuchtigkeit
00:00 +7°C° 0 mm 2 m/S 711 mmHg 94%
01:00 +7°C° 0 mm 2 m/S 711 mmHg 95%
02:00 +7°C° 0 mm 2 m/S 711 mmHg 96%
03:00 +8°C° 0 mm 1 m/S 711 mmHg 96%
04:00 +8°C° 0 mm 1 m/S 711 mmHg 96%
05:00 +8°C° 0 mm 1 m/S 711 mmHg 95%
06:00 +11°C° 0 mm 1 m/S 711 mmHg 84%
07:00 +13°C° 0 mm 2 m/S 712 mmHg 73%
08:00 +15°C° 0 mm 2 m/S 712 mmHg 61%
09:00 +17°C° 0 mm 2 m/S 712 mmHg 57%
10:00 +18°C° 0 mm 2 m/S 712 mmHg 52%
11:00 +19°C° 0 mm 3 m/S 712 mmHg 47%
12:00 +20°C° 0 mm 3 m/S 712 mmHg 48%
13:00 +20°C° 0 mm 3 m/S 712 mmHg 49%
14:00 +20°C° 0 mm 3 m/S 712 mmHg 49%
15:00 +19°C° 0 mm 3 m/S 712 mmHg 55%
16:00 +18°C° 0 mm 3 m/S 712 mmHg 61%
17:00 +16°C° 0 mm 3 m/S 711 mmHg 67%
18:00 +14°C° 0 mm 2 m/S 712 mmHg 77%
19:00 +12°C° 0 mm 2 m/S 712 mmHg 88%
20:00 +9°C° 0 mm 2 m/S 712 mmHg 98%
21:00 +9°C° 0 mm 2 m/S 711 mmHg 98%
22:00 +9°C° 0 mm 2 m/S 711 mmHg 98%
23:00 +9°C° 0 mm 2 m/S 711 mmHg 98%

Morgen, 25 Juni, Freitag

Zeit Temperatur Niederschläge Wind Luftdruck Luftfeuchtigkeit
00:00 +9°C° 0 mm 2 m/S 711 mmHg 97%
01:00 +9°C° 0 mm 2 m/S 711 mmHg 97%
02:00 +9°C° 0 mm 2 m/S 710 mmHg 96%
03:00 +11°C° 0 mm 1 m/S 710 mmHg 96%
04:00 +11°C° 0 mm 1 m/S 710 mmHg 95%
05:00 +11°C° 0 mm 1 m/S 710 mmHg 94%
06:00 +13°C° 0 mm 2 m/S 710 mmHg 86%
07:00 +15°C° 0 mm 2 m/S 710 mmHg 77%
08:00 +17°C° 0 mm 2 m/S 711 mmHg 69%
09:00 +18°C° 0 mm 2 m/S 710 mmHg 65%
10:00 +20°C° 0 mm 2 m/S 710 mmHg 61%
11:00 +21°C° 0 mm 2 m/S 710 mmHg 57%
12:00 +22°C° 0 mm 3 m/S 710 mmHg 56%
13:00 +22°C° 0 mm 3 m/S 710 mmHg 54%
14:00 +22°C° 0 mm 3 m/S 709 mmHg 53%
15:00 +21°C° 0 mm 3 m/S 709 mmHg 59%
16:00 +20°C° 0 mm 3 m/S 709 mmHg 65%
17:00 +18°C° 0 mm 3 m/S 708 mmHg 70%
18:00 +16°C° 0 mm 2 m/S 708 mmHg 79%
19:00 +14°C° 0 mm 2 m/S 708 mmHg 88%
20:00 +12°C° 0 mm 2 m/S 708 mmHg 98%
21:00 +12°C° 0 mm 2 m/S 708 mmHg 98%
22:00 +12°C° 0 mm 1 m/S 708 mmHg 98%
23:00 +12°C° 0 mm 1 m/S 707 mmHg 98%

übermorgen, 26 Juni, Samstag

Zeit Temperatur Niederschläge Wind Luftdruck Luftfeuchtigkeit
00:00 +11°C° 0 mm 1 m/S 707 mmHg 97%
01:00 +11°C° 0 mm 1 m/S 707 mmHg 97%
02:00 +11°C° 0 mm 1 m/S 707 mmHg 97%
03:00 +11°C° 0 mm 1 m/S 707 mmHg 96%
04:00 +12°C° 0 mm 1 m/S 707 mmHg 95%
05:00 +12°C° 0 mm 1 m/S 707 mmHg 94%
06:00 +13°C° 0 mm 1 m/S 707 mmHg 87%
07:00 +14°C° 0 mm 1 m/S 707 mmHg 80%
08:00 +15°C° 0 mm 1 m/S 707 mmHg 74%
09:00 +16°C° 0 mm 1 m/S 707 mmHg 68%
10:00 +18°C° 0 mm 1 m/S 707 mmHg 63%
11:00 +19°C° 0 mm 1 m/S 707 mmHg 57%
12:00 +18°C° 0.1 mm 2 m/S 707 mmHg 62%
13:00 +17°C° 0.1 mm 2 m/S 707 mmHg 67%
14:00 +16°C° 0.1 mm 2 m/S 707 mmHg 72%
15:00 +15°C° 0.1 mm 2 m/S 707 mmHg 77%
16:00 +14°C° 0.1 mm 2 m/S 706 mmHg 81%
17:00 +13°C° 0.1 mm 1 m/S 706 mmHg 86%
18:00 +13°C° 0.1 mm 1 m/S 706 mmHg 89%
19:00 +12°C° 0.1 mm 1 m/S 706 mmHg 93%
20:00 +11°C° 0.1 mm 1 m/S 706 mmHg 96%
21:00 +11°C° 0.3 mm 1 m/S 706 mmHg 96%
22:00 +11°C° 0.3 mm 1 m/S 706 mmHg 97%
23:00 +9°C° 0.3 mm 2 m/S 707 mmHg 98%

27 Juni, Sonntag

Zeit Temperatur Niederschläge Wind Luftdruck Luftfeuchtigkeit
00:00 +9°C° 0.1 mm 2 m/S 706 mmHg 97%
01:00 +9°C° 0.1 mm 1 m/S 706 mmHg 96%
02:00 +8°C° 0.1 mm 1 m/S 706 mmHg 96%
03:00 +8°C° 0.1 mm 1 m/S 706 mmHg 96%
04:00 +8°C° 0.1 mm 1 m/S 706 mmHg 96%
05:00 +8°C° 0.1 mm 1 m/S 707 mmHg 96%
06:00 +9°C° 0.2 mm 1 m/S 707 mmHg 90%
07:00 +10°C° 0.2 mm 2 m/S 707 mmHg 84%
08:00 +12°C° 0.2 mm 2 m/S 707 mmHg 78%
09:00 +13°C° 0.1 mm 2 m/S 708 mmHg 69%
10:00 +13°C° 0.1 mm 3 m/S 708 mmHg 61%
11:00 +14°C° 0.1 mm 3 m/S 708 mmHg 53%
12:00 +14°C° 0 mm 3 m/S 708 mmHg 52%
13:00 +16°C° 0 mm 3 m/S 708 mmHg 51%
14:00 +16°C° 0 mm 3 m/S 709 mmHg 51%
15:00 +16°C° 0 mm 3 m/S 709 mmHg 54%
16:00 +14°C° 0 mm 3 m/S 709 mmHg 56%
17:00 +14°C° 0 mm 3 m/S 709 mmHg 59%
18:00 +12°C° 0 mm 3 m/S 709 mmHg 71%
19:00 +10°C° 0 mm 2 m/S 709 mmHg 83%
20:00 +8°C° 0 mm 2 m/S 709 mmHg 95%
21:00 +9°C° 0.1 mm 2 m/S 709 mmHg 94%
22:00 +10°C° 0.1 mm 1 m/S 709 mmHg 94%
23:00 +11°C° 0.1 mm 1 m/S 710 mmHg 93%

28 Juni, Montag

Zeit Temperatur Niederschläge Wind Luftdruck Luftfeuchtigkeit
00:00 +11°C° 0.1 mm 1 m/S 709 mmHg 94%
01:00 +11°C° 0.1 mm 1 m/S 709 mmHg 95%
02:00 +10°C° 0.1 mm 2 m/S 709 mmHg 96%
03:00 +11°C° 0.2 mm 1 m/S 710 mmHg 96%
04:00 +11°C° 0.2 mm 1 m/S 710 mmHg 97%
05:00 +11°C° 0.2 mm 1 m/S 710 mmHg 97%
06:00 +11°C° 0.1 mm 1 m/S 710 mmHg 95%
07:00 +12°C° 0.1 mm 1 m/S 711 mmHg 93%
08:00 +12°C° 0.1 mm 1 m/S 711 mmHg 91%
09:00 +13°C° 0.1 mm 2 m/S 711 mmHg 84%
10:00 +14°C° 0.1 mm 2 m/S 711 mmHg 77%
11:00 +15°C° 0.1 mm 2 m/S 712 mmHg 71%
12:00 +16°C° 0 mm 2 m/S 712 mmHg 63%
13:00 +17°C° 0 mm 3 m/S 712 mmHg 56%
14:00 +19°C° 0 mm 3 m/S 712 mmHg 48%
15:00 +18°C° 0 mm 3 m/S 712 mmHg 52%
16:00 +17°C° 0 mm 3 m/S 712 mmHg 56%
17:00 +16°C° 0 mm 3 m/S 712 mmHg 60%
18:00 +13°C° 0 mm 2 m/S 712 mmHg 72%
19:00 +11°C° 0 mm 1 m/S 712 mmHg 85%
20:00 +9°C° 0 mm 1 m/S 712 mmHg 97%
21:00 +9°C° 0 mm 1 m/S 712 mmHg 97%
22:00 +9°C° 0 mm 1 m/S 712 mmHg 97%
23:00 +8°C° 0 mm 0 m/S 712 mmHg 97%

29 Juni, Dienstag

Zeit Temperatur Niederschläge Wind Luftdruck Luftfeuchtigkeit
00:00 +8°C° 0 mm 0 m/S 712 mmHg 97%
01:00 +9°C° 0 mm 1 m/S 712 mmHg 97%
02:00 +9°C° 0 mm 1 m/S 711 mmHg 97%
03:00 +9°C° 0 mm 1 m/S 712 mmHg 96%
04:00 +9°C° 0 mm 0 m/S 712 mmHg 95%
05:00 +9°C° 0 mm 0 m/S 712 mmHg 94%
06:00 +12°C° 0 mm 1 m/S 712 mmHg 85%
07:00 +14°C° 0 mm 1 m/S 712 mmHg 77%
08:00 +16°C° 0 mm 1 m/S 712 mmHg 69%
09:00 +17°C° 0 mm 2 m/S 712 mmHg 64%
10:00 +19°C° 0 mm 2 m/S 712 mmHg 59%
11:00 +20°C° 0 mm 2 m/S 712 mmHg 54%
12:00 +20°C° 0 mm 2 m/S 712 mmHg 53%
13:00 +21°C° 0 mm 2 m/S 712 mmHg 53%
14:00 +21°C° 0 mm 3 m/S 712 mmHg 53%
15:00 +20°C° 0 mm 3 m/S 712 mmHg 58%
16:00 +18°C° 0 mm 2 m/S 712 mmHg 63%
17:00 +17°C° 0 mm 2 m/S 711 mmHg 68%
18:00 +15°C° 0 mm 2 m/S 711 mmHg 78%
19:00 +13°C° 0 mm 2 m/S 711 mmHg 88%
20:00 +11°C° 0 mm 1 m/S 711 mmHg 98%
21:00 +11°C° 0 mm 1 m/S 711 mmHg 98%
22:00 +10°C° 0 mm 1 m/S 711 mmHg 98%
23:00 +10°C° 0 mm 1 m/S 711 mmHg 98%
Mehr zeigen

Wir brauchen deine Erlaubnis

Meteoprog und unser Service Anbieter werden persönliche Daten aufbewahren, so wie Cookies, Geräte Bezeichnung oder ähnliche Technologien von deinem Gerät und Prozess, so wie Persönliche Daten Inhalte und Werbungen, genauso wie social Media und den Verkehr zu analysieren.

  • Aufbewahrung und/oder Zugang zu deiner Geräte Informationen.

    Cookies, Geräte Bezeichnung oder andere Informationen, können aufbewahrt oder Zugang zu deinem Gerät erhalten, für den Grund, der oben angegeben wird.

  • Personalisierte Werbung und Inhalte, Messungen, Einblick in das Publikum und Produkt Entwicklung.

    Werbungen und Inhalte können personalisiert werden, basierend auf ein Profil. Mehr Daten können besser personalisierte Werbungen und Inhalte hinzufügen. Werbung und Inhalte können gezeigt und gemessen werden. Einblicke über das Publikum, welche die Werbung gesehen haben und den Inhalt, können abgeleitet werden. So wie Daten können genutzt werden, um es zu verbessern oder die Benutzer Erfahrung zu verbessern das System und die Software.

Wenn du “Ich stimme zu” klickst, erlaubst du uns, die Cookies zu benutzen die Geräte Bezeichnung, den Web oder ähnliche Technologien zu benutzen. Deine Settings, können in deinem Gerät bei deinem Browser geändert werden.

Für den bestimmten Zweck, berechtigten Interessen beruhen darauf, mehr als auf den Inhalt. Du kannst mehr darüber in unseren Privaten und Cookie Politik lesen.